Погода в Октябрьском

Россия / Республика Калмыкия     46°10′29″N   42°47′40″E
темп.,
°C
ветер,
м/с
пор.,
м/с
влажн.,
%
обл.,
%
осадки,
мм/ч
давл.,
гПа
погр.,
м
4 августа, ср
ср400:00+29зсз463926 0.0 101073
03:00+28зсз334635 0.0 101045
06:00+25ссз576275 0.0 1012255
09:00+29ссз4548100 0.0 1013525
12:00+33сз553548 0.0 10131087
15:00+35ссз443120 0.0 10121657
18:00+34ссз44333 0.0 10121036
21:00+26зсз61162100 0.8 1013251
5 августа, чт
чт500:00+26ссв245744 2.4 101375
03:00+23з237287 5.6 101444
06:00+23зсз237192 3.8 1014102
09:00+27ссз1154100 3.9 1015387
12:00+30с22416 0.0 1014967
15:00+32в23354 0.0 10131134
18:00+33вюв1235100 0.0 1011690
21:00+29всв334263 0.0 101124
6 августа, пт
пт600:00+29в714383 0.0 1011422
03:00+27в613404 0.0 1011400
06:00+26в614410 0.0 1011480
09:00+30вюв811280 0.0 1012872
12:00+34вюв810260 0.0 10101689
15:00+36в810250 0.0 10082278
18:00+35в711280 0.0 1006745
21:00+31в815320 0.0 1007453
7 августа, сб
сб700:00+29в714354 0.0 1007372
03:00+27в71441100 0.0 1007438
06:00+27в71542100 0.0 1007494
09:00+31вюв9132988 0.0 1007838
12:00+36вюв9122298 0.0 10051756
15:00+38вюв8102192 0.0 10042374
18:00+37вюв7112342 0.0 1004578
21:00+33юв81428100 0.0 1006494
8 августа, вс
вс800:00+31вюв61136100 0.0 1007347
03:00+29всв3442100 0.0 1007104
06:00+28ссв2241100 0.0 100843
09:00+31ссв23305 0.0 1008601
12:00+34с222560 0.0 10081054
15:00+36ссз45235 0.0 10071256
18:00+36сз46240 0.0 10071001
21:00+29зсз8144649 0.0 1008378